Wind_Speed
47 47 47 48 50 50 51 51 50 48 47 48 49 49 49 49 49 48 48 48 48 48 48 47 46 44 43 43 42 41 40 38 38 37 37 36 35 35
47 47 48 49 50 50 50 50 50 49 48 48 48 47 48 47 46 47 47 48 47 48 46 45 44 43 42 41 40 38 36 35 35 35 34 33 33 32
47 48 49 50 51 50 49 49 49 49 48 47 47 47 47 47 46 47 47 47 47 47 46 44 42 41 40 38 36 34 33 32 32 32 31 31 29 29
48 49 50 51 50 49 49 49 49 49 48 47 47 46 46 46 47 47 46 46 46 44 43 42 40 38 36 34 32 31 30 30 29 29 29 28 27 28
49 50 51 51 50 49 50 49 49 48 47 47 46 46 46 46 46 45 45 45 44 43 42 40 37 35 33 31 29 29 29 29 28 28 27 26 26 26
50 51 51 50 49 50 50 48 47 47 47 47 46 46 45 46 45 44 43 43 42 40 38 35 33 32 31 29 28 28 29 28 28 27 26 24 24 23
51 51 51 50 50 49 48 47 47 47 47 47 46 45 45 45 44 43 42 40 39 36 34 33 31 30 30 29 28 28 28 28 27 25 24 23 23 22
51 51 50 49 48 47 46 47 47 46 46 45 45 44 44 44 43 42 41 38 36 34 34 31 30 29 28 27 27 26 26 26 24 23 22 21 21 20
51 50 48 47 46 45 45 46 46 46 45 44 43 43 43 42 41 40 38 36 34 33 31 29 28 27 25 24 23 23 22 21 19 19 18 18 18 18
49 48 46 45 44 44 43 44 44 44 43 43 43 42 41 40 39 37 34 33 32 31 30 28 27 24 23 22 21 21 21 20 19 17 16 16 15 15
47 46 44 43 43 43 43 42 42 42 41 42 41 40 39 39 37 35 33 32 31 29 27 27 25 23 22 22 21 21 20 19 17 15 15 13 13 13
45 44 43 43 42 42 42 41 40 41 40 39 38 38 38 36 34 33 32 31 30 27 25 26 25 23 22 21 21 20 18 17 16 15 14 14 14 14
43 41 41 41 41 40 40 40 40 40 39 38 37 36 36 34 32 32 31 30 28 25 25 25 24 23 22 20 19 17 17 17 15 14 14 14 14 13
41 40 40 40 39 39 39 39 39 39 38 36 35 34 34 32 31 31 29 27 26 24 24 24 23 22 20 18 17 16 15 14 13 12 12 13 12 11
39 39 39 39 38 38 38 38 38 37 36 34 33 32 31 31 30 28 27 26 24 23 23 23 22 20 17 15 14 14 13 11 11 10 10 10 9 8
39 38 38 38 37 37 36 36 35 34 33 31 30 30 30 29 28 26 25 25 23 22 22 21 20 17 14 12 12 11 10 9 8 8 8 8 7 6
37 36 36 35 35 34 33 32 32 31 30 29 29 28 27 26 26 24 23 22 21 20 20 18 15 13 11 9 8 8 7 6 6 6 6 6 6 6
35 34 33 32 32 31 30 29 29 29 28 27 26 25 25 24 23 22 21 20 18 17 16 14 12 10 8 7 6 5 5 5 5 5 4 4 4 4
32 31 30 29 29 28 28 27 27 27 26 25 24 23 22 21 20 19 17 16 15 14 13 11 9 7 6 4 4 4 3 4 4 3 3 3 3 3
30 29 29 28 27 27 26 26 26 25 24 22 21 20 19 18 17 15 14 13 12 11 9 7 6 5 4 2 1 1 2 2 2 2 3 4 4 4
29 28 27 27 26 26 26 25 24 23 20 19 19 18 17 15 14 13 11 11 10 8 6 4 3 2 1 1 2 2 3 3 4 5 5 6 6 6
27 26 25 25 24 24 24 23 21 18 17 17 16 15 14 13 11 11 10 9 7 5 3 2 1 2 3 4 5 5 5 5 6 6 6 7 7 7
25 25 24 23 23 22 22 21 18 16 15 14 13 13 11 10 9 8 7 6 4 2 2 2 4 4 5 6 6 6 6 7 7 7 7 8 9 9
Wind_Direction
293 295 296 297 298 299 299 300 300 300 300 301 302 303 303 304 304 304 305 306 307 307 306 305 303 303 303 302 301 296 292 290 289 287 286 284 282 279
294 295 296 298 299 300 300 300 301 301 301 302 303 303 304 305 305 305 306 308 308 308 308 306 305 304 304 304 301 298 295 292 290 287 286 284 282 279
294 296 297 299 300 300 300 301 301 301 301 303 303 304 304 305 306 306 307 308 308 308 308 308 306 305 305 305 302 300 298 296 293 290 287 285 283 281
294 296 297 299 300 300 301 301 300 300 301 302 303 304 304 306 307 307 307 308 310 310 310 309 307 307 307 306 302 302 301 298 295 292 289 286 284 281
295 296 297 298 298 299 301 301 300 300 301 302 303 304 304 306 307 308 308 309 310 311 310 309 307 307 307 305 302 303 304 300 296 293 291 287 285 283
295 296 297 298 298 299 300 300 299 299 300 301 303 304 305 307 308 308 309 309 310 312 311 310 308 307 306 305 303 303 303 302 299 294 291 289 286 284
295 296 297 297 298 298 298 298 299 299 299 300 302 303 304 306 307 308 308 308 311 311 311 311 309 309 307 305 305 304 304 303 302 296 290 287 286 284
295 296 296 296 296 297 297 298 299 299 299 300 302 303 304 305 306 307 307 307 308 309 309 309 308 309 308 306 306 306 306 305 303 299 294 289 286 284
295 295 295 295 295 296 296 298 299 299 300 300 301 303 304 305 306 307 307 307 308 308 307 308 309 310 309 310 311 313 313 312 309 306 300 296 292 286
294 294 294 294 295 296 297 297 298 299 299 299 301 303 304 305 306 307 307 308 309 308 306 307 309 308 309 312 313 315 315 313 311 309 307 303 298 291
293 293 293 294 295 295 296 297 298 299 298 299 301 302 303 305 305 306 306 308 309 307 307 308 309 305 305 308 310 312 312 312 310 309 310 308 306 300
293 293 293 294 294 295 296 297 298 299 299 299 300 301 303 304 305 306 307 308 308 307 306 307 307 304 304 307 308 308 308 308 307 305 305 306 305 301
292 292 292 294 294 295 295 296 297 299 299 299 300 300 302 302 303 305 306 306 306 306 306 307 308 306 306 308 307 307 307 308 306 305 304 306 306 303
291 291 292 293 294 295 296 296 296 298 297 297 298 299 301 300 301 303 305 305 305 305 306 308 309 307 306 305 305 305 307 308 307 307 308 310 309 305
291 291 292 293 294 295 296 296 297 298 297 296 296 298 299 299 299 301 302 304 304 305 306 308 309 308 305 304 303 304 306 306 307 309 312 315 313 307
289 290 291 292 293 294 295 296 297 298 297 296 295 297 298 299 300 300 301 302 303 304 307 310 310 307 301 301 303 304 308 309 311 317 320 322 321 323
287 288 290 291 292 293 295 296 297 298 298 297 297 297 298 298 299 300 301 302 303 304 308 310 307 304 298 299 300 305 314 320 323 323 326 335 339 338
286 288 289 290 291 293 295 297 298 300 300 299 298 299 299 299 299 300 301 304 305 306 309 308 305 302 298 297 295 304 312 316 322 332 339 345 347 351
285 287 288 290 291 292 294 296 298 300 299 299 300 300 301 301 301 302 303 306 308 308 308 307 306 306 301 297 293 299 312 321 333 349 11 27 39 40
284 285 286 287 289 291 293 294 296 298 298 298 300 301 302 301 300 302 305 308 308 307 307 305 307 305 301 300 304 336 353 4 23 46 63 62 61 54
282 283 284 285 286 288 290 292 295 295 293 296 299 300 301 302 302 300 301 304 305 303 300 298 299 293 295 72 96 92 72 66 76 85 84 74 67 67
280 281 282 283 284 286 289 292 293 290 290 295 299 300 301 300 299 299 299 303 302 298 285 263 198 145 121 110 107 101 93 88 89 90 86 75 72 79
279 280 281 282 283 284 286 287 285 283 285 290 296 300 299 297 296 294 296 300 295 271 200 156 138 131 127 123 119 110 103 98 97 95 91 85 84 89
Height
5705 5701 5697 5692 5687 5682 5676 5671 5667 5663 5660 5653 5646 5640 5633 5627 5620 5614 5608 5602 5596 5590 5583 5577 5572 5566 5561 5555 5550 5545 5541 5537 5534 5531 5528 5525 5523 5521
5695 5691 5686 5681 5676 5670 5665 5660 5654 5650 5646 5642 5635 5629 5622 5616 5610 5603 5598 5592 5586 5579 5573 5567 5561 5556 5550 5545 5539 5535 5531 5527 5524 5521 5519 5516 5514 5512
5684 5680 5675 5670 5665 5659 5654 5649 5643 5638 5634 5630 5624 5618 5612 5606 5600 5594 5588 5581 5575 5569 5562 5556 5551 5546 5540 5535 5530 5526 5522 5518 5515 5512 5510 5508 5506 5504
5674 5669 5664 5659 5654 5648 5643 5638 5633 5627 5623 5619 5614 5608 5602 5596 5590 5584 5578 5571 5565 5559 5553 5547 5542 5536 5531 5526 5522 5518 5514 5511 5507 5504 5502 5500 5498 5496
5663 5658 5653 5648 5643 5638 5633 5627 5622 5617 5612 5607 5603 5597 5592 5586 5580 5574 5568 5562 5556 5550 5544 5538 5533 5528 5524 5519 5515 5511 5507 5504 5500 5497 5495 5493 5491 5489
5651 5647 5642 5636 5632 5627 5621 5616 5611 5606 5601 5597 5592 5587 5582 5576 5570 5565 5560 5553 5547 5541 5535 5530 5526 5521 5517 5513 5509 5505 5501 5497 5493 5491 5488 5486 5485 5483
5640 5635 5630 5625 5620 5615 5610 5605 5600 5596 5591 5587 5582 5578 5572 5567 5561 5556 5551 5545 5540 5534 5529 5524 5519 5515 5511 5506 5502 5499 5495 5491 5487 5484 5482 5480 5479 5478
5628 5623 5619 5614 5609 5604 5599 5594 5589 5584 5580 5576 5572 5567 5563 5557 5552 5546 5541 5537 5533 5528 5522 5518 5513 5509 5505 5500 5496 5492 5489 5485 5482 5479 5476 5474 5473 5472
5616 5612 5607 5602 5597 5593 5589 5584 5579 5574 5570 5566 5562 5558 5553 5548 5543 5538 5533 5528 5524 5520 5515 5512 5508 5503 5499 5495 5491 5488 5484 5480 5477 5474 5472 5470 5468 5467
5604 5600 5595 5591 5586 5582 5578 5574 5569 5565 5560 5556 5553 5549 5544 5539 5534 5530 5525 5521 5517 5513 5508 5506 5502 5498 5495 5491 5487 5484 5480 5477 5473 5471 5469 5467 5465 5463
5593 5589 5584 5580 5576 5572 5568 5564 5560 5556 5551 5547 5544 5540 5535 5531 5526 5522 5518 5515 5512 5508 5503 5499 5496 5493 5490 5487 5484 5480 5477 5474 5471 5468 5466 5464 5462 5460
5582 5578 5574 5570 5566 5562 5558 5555 5551 5547 5543 5539 5535 5532 5527 5523 5519 5515 5511 5508 5504 5501 5497 5494 5491 5487 5486 5483 5480 5476 5473 5471 5468 5466 5464 5462 5460 5458
5572 5568 5564 5560 5556 5552 5549 5545 5542 5538 5534 5531 5527 5524 5520 5516 5512 5508 5504 5501 5497 5495 5492 5488 5485 5482 5479 5478 5476 5472 5470 5467 5465 5463 5461 5459 5457 5456
5561 5558 5554 5551 5547 5543 5540 5536 5533 5529 5526 5523 5520 5516 5512 5508 5505 5501 5497 5494 5491 5488 5486 5482 5480 5477 5475 5473 5471 5469 5466 5464 5462 5461 5459 5457 5455 5454
5551 5548 5545 5541 5538 5535 5531 5527 5524 5521 5517 5515 5512 5508 5505 5501 5498 5495 5491 5488 5486 5483 5480 5477 5475 5472 5470 5468 5467 5465 5464 5462 5460 5458 5457 5456 5454 5453
5542 5539 5536 5533 5529 5526 5522 5519 5516 5513 5509 5506 5504 5501 5497 5494 5491 5488 5486 5483 5481 5479 5476 5473 5471 5468 5467 5465 5464 5462 5461 5460 5459 5457 5456 5454 5453 5452
5533 5530 5527 5524 5521 5518 5514 5511 5508 5505 5502 5499 5497 5494 5491 5488 5485 5483 5480 5478 5476 5474 5472 5470 5467 5465 5464 5463 5462 5461 5460 5459 5457 5456 5455 5454 5453 5452
5524 5522 5519 5516 5513 5510 5507 5505 5502 5499 5495 5493 5490 5487 5485 5482 5480 5478 5476 5474 5472 5470 5468 5466 5464 5463 5463 5462 5461 5460 5459 5458 5457 5456 5455 5454 5453 5452
5516 5514 5511 5509 5506 5503 5501 5498 5495 5493 5490 5487 5484 5482 5480 5477 5475 5474 5472 5470 5469 5467 5466 5464 5462 5461 5461 5461 5460 5459 5459 5458 5457 5456 5455 5455 5454 5453
5508 5506 5504 5502 5499 5497 5494 5492 5489 5487 5484 5482 5480 5477 5475 5473 5472 5470 5469 5467 5466 5465 5464 5462 5461 5461 5461 5461 5460 5459 5458 5458 5457 5457 5456 5456 5455 5455
5500 5498 5496 5494 5492 5490 5488 5486 5483 5481 5479 5477 5475 5473 5471 5470 5468 5467 5466 5465 5464 5463 5463 5462 5461 5461 5460 5461 5460 5460 5459 5459 5458 5458 5458 5457 5457 5457
5492 5491 5489 5487 5486 5484 5482 5480 5478 5476 5474 5473 5471 5470 5468 5467 5466 5465 5464 5463 5463 5462 5462 5461 5461 5461 5461 5461 5461 5460 5460 5460 5460 5459 5459 5460 5459 5459
5485 5483 5482 5481 5479 5477 5476 5474 5473 5472 5470 5469 5468 5467 5465 5464 5463 5463 5462 5462 5461 5461 5462 5462 5462 5462 5463 5463 5463 5463 5462 5462 5462 5462 5462 5462 5462 5462